Location: Villingen
(48.0639°N, 8.4609°E)
Time: 10:55:28
(UTC+01:00)

ISS - Pass Details

Date: 09 January 2018
Orbit: 402 x 407 km, 51.6° (Epoch: 18 January)

Event Time Altitude Azimuth Distance (km) Brightness Sun altitude
Exits shadow 07:21:27 12° 291° (WNW) 1,346 -1.9 -8.7°
Maximum altitude 07:24:26 75° 207° (SSW) 425 -3.8 -8.2°
Drops below altitude 10° 07:27:43 10° 121° (ESE) 1,465 0.7 -7.7°
Sets 07:29:47 0° 119° (ESE) 2,324 2.6 -7.4°
